{"data":{"norad_id":44061,"intl_designator":"2019-010E","name":"ONEWEB-0006","alt_names":[],"object_type":"PAYLOAD","status":"ACTIVE","operator":null,"country":"UK","launch_date":"2019-02-27","launch_site_code":"FRGUI","launch_vehicle":null,"mission":null,"orbit_class":"UNKNOWN","rcs_meters":null,"size_class":null,"mass_kg":null,"dimensions":null,"purposes":["comms"],"wikipedia_slug":null,"has_3d_model":false,"image_url":null,"decayed_at":null,"tle_current":{"epoch":"2026-09-19T17:31:23.625984Z","epoch_age_seconds":81254,"freshness":"FRESH","line1":"1 44061U 19010E   26262.73013456 -.00000079  00000+0 -24458-3 0  9996","line2":"2 44061  87.8995 240.3411 0001869  82.7324 277.4019 13.15547255363851","mean_motion":13.15547255,"eccentricity":0.0001869,"inclination_deg":87.8995,"raan_deg":240.3411,"arg_perigee_deg":82.7324,"mean_anomaly_deg":277.4019,"bstar":-0.00024458,"rev_number":36385,"period_min":109.46015010308,"perigee_km":1200.3590561151,"apogee_km":1203.192427498,"semimajor_km":7579.9127418066,"source":"CELESTRAK","updated_at":"2026-09-20T09:00:44.544143Z"}}}